Back to catalog

COSMOS 663 DEB

AlivePO
NORAD 53881·DEBRIS·🇷🇺 Russia

Launched Jun 27, 1974 from Plesetsk Cosmodrome

Loading…

Next Passes (next 24 hours)

TLE

FreshSource: Space-Track

Epoch: Sep 12, 2026, 08:07 UTC

1 53881U 74048D   26255.33872095  .00000298  00000-0  28473-3 0  9991
2 53881  82.9469 108.6112 0025752   2.4669 357.6611 13.77373016203756

Track COSMOS 663 DEB in real time with AllMySat

Download on the App Store